EHI
39 40 42 41 37 32 26 23 22 20 16 12 10 9 8 9 10 9 7 5 3 3 4 6 7 8 7 4 1 0 0 0 0 1 2 2 1 1 1 4 6 4 1
41 41 41 38 32 26 21 19 20 19 14 11 9 8 8 9 9 7 5 3 2 3 4 4 6 7 6 3 1 0 0 0 0 0 1 1 0 0 1 3 5 3 2
45 43 40 34 26 20 16 16 19 18 14 10 6 5 6 6 6 6 4 3 3 4 4 4 4 5 4 2 1 1 1 0 0 0 0 0 0 0 1 2 3 2 2
48 43 36 30 23 16 14 16 19 17 12 8 5 3 3 4 5 7 8 6 4 3 3 3 3 4 3 2 1 2 2 1 1 2 1 1 0 0 0 1 1 1 1
49 43 34 27 20 14 12 15 18 17 12 7 4 3 3 5 6 8 9 6 3 2 1 1 2 3 2 2 2 3 3 3 2 2 2 1 0 0 0 0 0 0 0
47 41 34 26 20 14 11 13 18 19 13 6 3 4 6 7 7 6 5 3 1 0 0 0 1 1 1 1 1 2 2 2 2 1 1 1 0 0 0 0 0 0 0
42 38 32 26 22 18 14 15 19 20 14 7 5 6 7 6 5 3 1 1 0 0 0 0 0 0 0 0 0 1 1 1 1 0 0 0 0 0 0 0 0 0 0
38 34 29 26 23 20 18 18 20 19 15 11 10 10 7 4 3 1 0 0 0 1 1 1 0 0 0 0 0 0 0 0 0 0 0 0 0 0 0 0 0 0 0
35 31 27 26 22 20 19 20 20 19 17 15 14 11 6 4 3 1 0 1 1 2 2 1 1 0 0 0 0 0 0 0 0 0 0 0 0 0 0 0 0 0 0
34 29 26 24 20 18 18 18 21 23 20 17 14 10 7 5 4 2 1 1 2 3 3 3 2 1 0 0 0 0 0 0 0 0 0 0 0 0 0 0 0 0 0
36 33 29 24 18 15 15 16 20 24 24 20 15 12 10 7 5 3 3 3 3 3 3 3 3 2 0 0 0 0 0 0 0 0 0 0 0 0 0 0 0 0 0
40 38 33 25 17 13 14 16 19 22 24 22 17 14 12 10 7 5 4 4 4 3 3 3 2 1 0 0 0 0 0 0 0 0 0 0 0 0 0 0 0 0 0
46 45 41 33 24 19 17 18 19 21 22 20 16 14 14 13 10 6 5 5 4 3 2 2 1 0 0 0 0 0 0 0 0 0 0 0 0 0 0 0 0 0 0
53 54 56 52 44 36 28 22 22 23 23 19 16 17 17 15 11 7 5 4 3 1 1 1 0 0 0 0 0 0 0 0 0 0 0 0 0 0 0 0 0 0 0
57 63 70 70 66 57 42 31 29 28 26 23 22 23 21 16 12 8 6 4 1 0 0 0 0 0 0 0 0 0 0 0 0 0 0 0 0 0 0 0 0 0 0
58 68 78 79 76 65 50 41 39 37 33 30 29 28 25 18 12 9 7 4 1 0 0 0 0 0 0 0 0 0 0 0 0 0 0 0 0 0 0 0 0 0 0
61 71 80 82 76 63 52 49 47 43 39 34 33 31 25 18 13 10 7 5 2 1 1 1 0 0 0 0 0 0 0 0 0 0 0 0 0 0 0 0 0 0 0
65 73 80 81 73 62 56 54 49 43 38 35 33 29 22 17 14 11 9 6 5 4 4 3 1 1 0 0 0 0 0 0 0 0 0 0 0 0 0 0 0 0 0
65 70 74 75 72 67 63 56 47 39 36 34 31 24 19 16 15 13 10 8 7 7 6 5 4 3 2 1 0 0 0 0 0 0 0 0 0 0 0 0 0 0 0
61 66 69 72 75 75 70 60 48 41 37 34 30 24 20 19 18 16 14 12 10 8 6 5 6 7 5 3 1 0 0 0 0 0 0 0 0 0 0 0 0 0 0
62 67 72 76 79 80 76 65 54 46 40 35 31 27 23 21 20 21 20 17 13 10 8 6 7 8 8 4 1 0 0 0 0 0 0 0 0 0 0 0 0 0 0
65 70 76 80 81 81 78 70 62 52 42 36 33 29 23 18 18 21 22 19 14 11 10 8 6 7 7 4 1 0 0 0 0 0 0 0 0 0 0 0 0 0 0
67 71 75 78 80 79 75 70 66 59 50 43 39 31 23 18 17 19 18 16 12 10 9 8 6 6 6 4 2 0 0 0 0 0 0 0 0 0 0 0 0 0 0
71 72 74 75 76 74 67 65 66 63 57 50 42 32 23 18 16 16 13 10 8 7 7 7 7 6 5 4 2 0 0 0 0 0 0 0 0 0 0 0 1 1 0
70 72 72 70 70 67 61 61 64 63 57 47 36 25 17 13 12 11 7 5 4 4 5 6 5 3 2 1 1 0 0 0 0 0 0 0 0 0 0 1 2 2 1
68 69 69 66 66 62 59 61 64 62 55 42 28 17 11 8 8 7 4 2 2 2 2 3 2 1 0 0 0 0 0 0 0 0 0 0 0 0 0 1 2 3 3
Wind_Speed
13 11 10 11 11 10 10 9 9 7 5 4 4 4 4 4 4 4 4 3 2 2 1 2 2 2 3 2 2 1 0 1 1 1 1 2 3 2 2 2 1 2 2
13 12 11 11 11 11 10 10 9 7 6 4 3 3 3 3 4 4 3 3 3 2 2 2 2 2 3 2 2 2 1 0 1 0 1 1 0 2 3 2 3 2 1
15 14 12 12 12 12 11 9 9 7 6 6 4 4 3 3 4 4 3 3 3 3 3 3 3 2 2 2 1 2 1 1 0 0 0 1 1 1 0 1 2 2 1
16 15 14 13 13 12 11 10 8 7 6 6 5 6 5 4 5 4 4 3 3 3 4 4 4 2 2 2 1 3 2 1 1 0 0 0 1 1 1 1 1 2 3
17 16 15 14 13 13 12 11 9 8 6 5 6 5 4 4 4 5 5 4 4 3 4 4 3 3 3 4 4 3 3 2 3 2 1 1 1 2 1 1 1 1 2
18 17 15 14 13 13 12 12 10 8 7 6 5 4 5 5 6 5 5 4 4 3 4 4 3 2 3 3 3 2 2 2 3 3 2 2 2 1 1 2 2 1 1
18 18 17 15 14 14 13 12 11 9 8 7 6 5 5 5 5 5 4 3 4 4 4 4 2 2 2 2 2 1 2 2 2 2 2 3 3 2 2 2 2 2 2
18 18 18 16 14 15 14 13 12 10 8 7 6 6 5 4 4 3 3 3 3 5 5 4 2 2 1 1 2 1 0 1 1 2 1 2 2 2 2 2 2 3 3
19 19 18 17 15 15 14 14 13 10 9 8 7 6 5 3 4 4 3 3 4 5 5 4 3 2 2 1 0 0 1 1 1 2 1 1 2 2 2 2 2 2 3
19 19 18 17 16 15 13 14 13 11 10 10 8 8 6 4 5 4 3 4 4 4 4 3 2 2 2 2 1 1 1 1 1 1 1 2 2 2 2 1 2 2 2
20 19 18 17 16 16 15 14 13 12 10 10 8 7 7 6 5 4 4 4 4 4 3 3 2 2 2 2 1 1 1 1 1 2 1 1 1 2 3 3 2 2 2
19 19 18 18 17 17 16 14 14 13 11 10 8 8 7 7 6 6 5 5 4 4 4 3 3 3 3 2 2 2 1 1 1 2 2 2 2 1 2 2 3 3 2
18 18 17 16 16 15 15 15 14 13 12 11 10 9 8 8 6 6 6 5 5 4 3 3 3 3 2 2 2 2 2 2 2 2 2 2 2 2 2 3 3 3 4
15 17 14 13 13 12 13 13 14 13 12 11 11 9 9 8 7 6 6 5 5 4 4 3 3 3 3 3 3 3 3 3 3 2 3 3 3 2 2 4 3 3 3
16 16 15 13 12 12 12 12 12 12 11 11 10 9 8 8 7 7 6 6 5 6 4 4 4 4 4 4 3 3 4 3 3 3 3 4 4 2 3 3 2 3 3
17 17 17 15 14 13 13 12 11 11 10 10 10 10 9 9 8 7 7 6 5 4 4 4 4 5 4 3 4 2 3 3 3 4 4 5 6 7 9 8 8 6 5
17 16 17 15 14 14 12 12 11 11 10 10 10 10 9 9 9 9 8 7 6 5 5 4 5 5 4 5 6 5 3 4 5 4 4 6 5 4 5 7 10 11 13
15 15 15 15 15 14 12 11 12 11 11 10 10 10 10 10 9 8 7 7 5 5 5 5 5 5 6 8 8 7 5 6 6 6 6 6 5 5 3 4 5 6 7
11 12 14 16 14 14 13 12 12 12 12 12 11 11 10 10 9 8 7 6 5 5 5 5 5 5 5 9 9 8 5 6 7 7 7 7 6 7 7 5 6 6 6
9 11 13 14 13 13 13 13 13 13 13 12 11 10 9 9 9 8 7 6 5 5 6 5 6 6 6 9 11 10 6 6 6 6 7 10 10 8 8 7 6 7 7
9 10 11 11 12 12 13 13 12 12 11 10 9 9 9 8 7 7 6 5 6 6 6 6 5 6 7 9 12 13 7 7 6 5 5 4 8 11 11 10 8 10 8
8 10 9 10 11 12 12 11 10 9 9 9 9 9 8 9 9 7 6 6 6 6 6 6 6 6 6 8 11 14 14 10 7 6 5 3 4 7 10 10 11 12 8
7 9 10 10 10 11 11 11 9 9 9 8 9 8 8 6 6 8 8 7 6 6 6 6 6 6 5 6 11 14 15 14 9 7 8 8 8 8 8 13 15 11 7
5 7 10 10 10 9 9 8 8 8 9 8 8 7 8 8 6 6 7 7 7 7 6 6 5 5 4 3 4 5 6 9 9 8 10 11 13 12 12 10 9 8 9
5 6 8 8 9 9 8 8 8 7 8 7 6 7 7 7 6 7 6 7 6 5 5 4 4 4 3 2 3 3 3 3 3 4 5 6 6 6 6 7 8 8 8
6 6 7 8 7 8 8 7 7 7 7 7 6 6 6 6 6 6 7 8 7 6 7 5 4 2 2 4 3 3 3 2 1 2 6 7 7 7 7 7 6 6 6
Wind_Direction
142 145 144 138 134 135 137 136 135 140 144 138 139 134 133 128 117 117 118 118 108 97 59 90 118 76 87 75 62 48 310 197 146 292 278 230 214 211 198 203 229 216 206
148 151 148 142 142 145 145 142 142 149 149 134 124 126 131 129 113 107 117 119 107 93 108 81 93 81 104 90 62 60 13 337 103 273 296 272 204 257 219 184 196 217 232
158 156 154 152 151 151 151 147 145 148 142 139 135 127 118 129 126 131 124 113 112 103 73 80 69 57 84 103 77 39 34 7 317 97 5 357 16 304 251 221 187 175 180
157 159 160 157 156 155 150 142 146 143 144 151 152 155 157 149 138 134 126 122 107 99 96 88 81 55 59 76 57 73 355 354 340 54 54 91 57 324 321 269 180 188 187
162 163 162 159 157 153 148 146 145 142 151 157 153 163 149 138 130 122 127 130 119 113 103 96 84 68 66 63 51 49 20 9 9 7 359 360 312 249 259 287 269 237 195
162 162 161 158 157 153 150 149 148 148 155 153 144 140 126 126 128 135 143 153 141 127 111 103 82 72 74 70 59 38 37 37 30 4 350 347 338 342 329 323 309 287 253
163 162 162 162 161 158 156 153 153 154 157 153 145 140 134 135 141 151 155 161 143 127 109 101 96 87 83 95 68 39 43 34 31 347 338 347 341 349 343 334 325 318 293
165 165 165 165 164 162 158 157 158 160 160 156 150 150 156 167 158 157 147 149 116 114 119 117 123 117 129 93 83 324 92 90 1 311 2 322 314 335 338 335 333 320 305
167 167 166 168 166 164 163 162 161 164 164 160 156 158 168 165 135 141 160 130 115 133 130 135 141 143 125 85 353 31 28 73 313 323 339 314 321 315 324 332 332 320 315
168 168 168 169 167 165 163 163 165 166 165 164 171 166 167 152 141 161 146 113 110 104 129 138 144 146 148 161 240 273 157 153 249 249 292 323 313 337 324 312 299 290 294
169 168 169 169 168 167 166 166 166 167 170 171 174 157 161 155 156 160 139 132 132 136 151 160 162 169 173 168 201 271 240 239 265 297 283 280 303 327 322 323 309 299 303
170 168 167 167 170 169 169 169 168 171 172 169 167 163 160 162 169 167 156 151 154 169 174 177 187 209 192 186 217 258 277 271 269 280 301 295 291 301 293 312 313 311 296
167 166 165 168 171 170 170 171 172 173 172 169 170 167 167 168 172 165 162 164 169 186 184 187 200 225 218 213 226 243 266 269 269 271 274 277 290 290 294 293 293 301 303
166 164 163 165 167 166 166 169 172 171 170 170 172 170 171 169 171 166 167 174 177 188 196 199 206 220 228 231 232 233 246 257 263 259 259 262 259 262 280 278 278 288 300
172 167 164 163 164 163 166 168 169 168 169 169 171 169 168 166 170 171 174 178 186 198 195 203 212 222 228 224 212 240 249 245 256 261 257 256 241 226 245 278 316 314 306
179 172 167 167 168 167 170 169 168 166 164 169 171 166 169 171 174 174 178 181 190 205 201 208 219 230 232 164 161 207 283 285 271 269 266 261 226 222 225 237 246 249 263
177 174 171 170 170 171 171 170 167 164 166 171 170 168 172 174 177 183 181 187 191 199 204 215 225 226 200 178 174 191 246 273 273 268 265 273 274 237 230 231 237 244 245
179 174 172 170 172 171 168 167 166 166 170 174 175 172 177 179 178 185 185 187 190 199 203 217 226 232 213 194 194 200 229 255 262 259 255 256 268 272 268 270 260 250 247
177 171 172 171 170 170 167 166 169 171 177 181 181 179 181 180 180 186 187 186 193 202 210 215 221 230 215 203 202 201 233 246 250 249 249 245 245 232 235 251 264 269 269
171 169 169 167 163 163 162 168 174 177 184 185 183 179 178 180 182 183 184 189 196 210 221 221 219 227 222 205 205 201 232 252 254 246 241 240 239 230 223 236 251 259 262
156 153 154 158 157 158 160 171 176 179 180 178 174 172 173 176 176 176 178 186 199 212 224 232 229 227 226 207 209 205 224 251 265 265 258 243 225 224 226 231 243 250 260
141 145 143 143 146 153 158 167 174 172 168 168 168 171 173 185 184 178 183 193 205 216 222 230 238 236 225 216 214 212 219 236 254 265 273 264 242 233 236 237 246 254 261
134 136 137 135 141 150 157 170 169 160 162 165 167 170 177 188 180 179 189 199 206 222 226 224 231 235 225 213 213 214 222 230 241 263 278 286 270 263 253 245 246 248 246
124 133 137 141 147 154 158 161 154 154 159 165 168 169 177 188 187 190 199 207 211 215 224 229 233 236 228 210 196 207 221 232 240 256 269 269 261 254 257 260 245 232 235
115 123 130 136 143 147 151 152 151 154 156 161 171 180 189 192 193 199 211 217 217 212 219 233 239 246 246 213 185 207 223 235 247 270 264 264 262 253 248 247 242 236 230
110 114 123 134 139 146 150 149 150 154 157 166 176 189 197 194 199 204 214 220 220 204 209 218 236 255 218 185 198 210 217 224 228 261 266 268 269 270 267 264 259 250 244